Location: Waning Moon II Observatory
(30.3730°N, 89.7620°W)
Time: 23:48:06
(UTC-05:00)

Meteor 1-21 - Visible Passes

Search period start: 04 May 2016 00:00
Search period end: 14 May 2016 00:00
Orbit: 845 x 888 km, 81.2° (Epoch: 04 May)

Date Brightness Start Highest point End Pass type
(mag) Time Alt. Az. Time Alt. Az. Time Alt. Az.
04 May 6.9 01:02:45 13° NE 01:02:45 13° NE 01:03:25 10° NNE visible
04 May 6.4 02:45:06 16° NNW 02:45:06 16° NNW 02:46:32 10° NNW visible
05 May 6.9 00:55:29 13° NE 00:55:29 13° NE 00:56:08 10° NNE visible
05 May 6.5 02:37:49 16° NNW 02:37:49 16° NNW 02:39:14 10° NNW visible
06 May 6.8 00:48:12 13° NE 00:48:12 13° NE 00:48:51 10° NNE visible
06 May 6.5 02:30:32 16° NNW 02:30:32 16° NNW 02:31:54 10° NNW visible
07 May 6.8 00:40:53 13° NE 00:40:53 13° NE 00:41:34 10° NNE visible
07 May 6.5 02:23:13 16° NNW 02:23:13 16° NNW 02:24:36 10° NNW visible
08 May 6.8 00:33:34 13° NE 00:33:34 13° NE 00:34:18 10° NNE visible
08 May 6.5 02:15:54 16° NNW 02:15:54 16° NNW 02:17:16 10° NNW visible
09 May 6.8 00:26:15 13° NE 00:26:15 13° NE 00:27:00 10° NNE visible
09 May 6.6 02:08:35 16° NNW 02:08:35 16° NNW 02:09:58 10° NNW visible
10 May 6.7 00:18:54 14° NE 00:18:54 14° NE 00:19:43 10° NNE visible
10 May 6.6 02:01:14 16° NNW 02:01:14 16° NNW 02:02:38 10° NNW visible
11 May 6.7 00:11:33 14° NE 00:11:33 14° NE 00:12:26 10° NNE visible
11 May 6.6 01:53:53 16° NNW 01:53:53 16° NNW 01:55:19 10° NNW visible
12 May 6.7 00:04:10 14° NE 00:04:10 14° NE 00:05:08 10° NNE visible
12 May 6.6 01:46:30 16° NNW 01:46:30 16° NNW 01:48:00 10° NNW visible
12 May 6.6 23:56:47 15° NE 23:56:47 15° NE 23:57:51 10° NNE visible
13 May 6.6 01:39:07 16° NNW 01:39:07 16° NNW 01:40:41 10° NNW visible
13 May 6.5 23:49:23 16° NE 23:49:23 16° NE 23:50:34 10° NNE visible
